Regional Weather Roundup
Issued by NWS

Home | Current Version | Previous Version | Text Only | Print | Product List | Glossary On
Versions: 1 2 3 4 5 6 7 8 9 10 11 12 13 14 15 16 17 18 19 20 21 22 23 24 25 26 27 28 29 30 31 32 33 34 35 36 37 38 39 40 41 42 43 44 45 46 47 48 49 50
000
ASUS43 KLOT 251208
RWRIL

ILLINOIS REGIONAL WEATHER ROUNDUP
NATIONAL WEATHER SERVICE CHICAGO/ROMEOVILLE IL
700 AM CDT MON JUL 25 2016

NOTE: "FAIR" INDICATES FEW OR NO CLOUDS BELOW 12,000 FEET WITH NO
SIGNIFICANT WEATHER AND/OR OBSTRUCTIONS TO VISIBILITY.

* THESE STATIONS ARE NOT UNDER NWS QUALITY CONTROL. THEY ALSO MAY NOT
  REPORT WEATHER SUCH AS PRECIPITATION OR FOG.

ILZ001-002-007-009-015-016-024-251300-
NORTHWEST ILLINOIS

CITY           SKY/WX    TMP DP  RH WIND       PRES   REMARKS
MOLINE         CLOUDY    73  67  81 W3        30.03R
6HR MIN TEMP:  69; 6HR MAX TEMP:  78;

STERLING*      SUNNY     71  68  90 W3        30.02S
SAVANNA*       MOSUNNY   71  68  90 NW5       30.02S
$$

ILZ003-004-008-010-011-017-018-251300-
NORTH CENTRAL ILLINOIS

CITY           SKY/WX    TMP DP  RH WIND       PRES   REMARKS
ROCKFORD       MOSUNNY   75  66  73 NW6       30.02R
6HR MIN TEMP:  73; 6HR MAX TEMP:  77;

FREEPORT*      SUNNY     67  65  93 W3        30.04S
ROCHELLE*      SUNNY     68  67  97 CALM      30.02S
DE KALB*       SUNNY     70  68  93 NW7       30.02S
$$

ILZ005-006-012>014-019>023-251300-
NORTHEAST ILLINOIS

CITY           SKY/WX    TMP DP  RH WIND       PRES   REMARKS
CHICAGO-OHARE  MOSUNNY   74  69  85 NW8       29.97R
6HR MIN TEMP:  72; 6HR MAX TEMP:  75;

CHICAGO-MIDWAY PTSUNNY   76  69  79 NW9       29.96S
6HR MIN TEMP:  74; 6HR MAX TEMP:  77;

AURORA         SUNNY     71  69  93 W6        30.00R
6HR MIN TEMP:  70; 6HR MAX TEMP:  75;

LANSING*       CLOUDY    73  67  84 CALM      29.97S
JOLIET*        CLOUDY    74  72  93 NW3       29.98S
WAUKEGAN       MOSUNNY   74  66  76 NW7       29.97R
6HR MIN TEMP:  72; 6HR MAX TEMP:  78;

DUPAGE AIRPORT CLOUDY    74  67  78 NW6       29.98R
6HR MIN TEMP:  71; 6HR MAX TEMP:  74;

KANKAKEE*      PTSUNNY   71  68  90 W7        29.98S
WHEELING       SUNNY     74  68  81 NW8       29.98S
6HR MIN TEMP:  72; 6HR MAX TEMP:  77;

MORRIS*        CLOUDY    72  70  95 NW6       29.97F
ROMEOVILLE*    CLOUDY    73  69  88 W3        29.99R
NORTHERLY ISL    N/A     75  67  76 W7          N/A
$$

LMZ740>746-251300-
SOUTHERN LAKE MICHIGAN

STATION/POSITION SKY/WX   TEMP    WIND        PRES    VSBY  WAVE
                          AIR SEA DIR/SP/G                  HT/PER
                          (F)     (DEG/KT/KT) (MB)    (MI)  (FT/S)
SOUTHERN BUOY              73 72  290/ 12/ 14 1013.9R         2/ 4
WILMETTE HARBOR            67 63  320/  6/  6   N/A           0
HARRISON CRIB              76     280/ 12/ 13   N/A
BURNHAM HARBOR             76     270/  7/ 10   N/A
CALUMET HARBOR             74     240/  3/  5 1014.0R
BURNS HARBOR               74     260/ 11/ 14 1014.9R
MICHIGAN CITY              74     230/ 12/ 13   N/A
MICHIGAN CITY 6N           74 74  300/  6/ 10   N/A           2/ 4
ST. JOSEPH                 74 73  290/  8/ 12 1014.3R         3/ 4
$$

ILZ025>027-034>036-040-047-049-050-058-095>099-251300-
WEST-CENTRAL ILLINOIS

CITY           SKY/WX    TMP DP  RH WIND       PRES   REMARKS
QUINCY         PTSUNNY   74  71  91 CALM      30.00S
GALESBURG*     PTSUNNY   69  68  95 NW5       30.03S
MACOMB*        CLOUDY    72  71  96 N5        30.03F
JACKSONVILLE*  PTSUNNY   73  71  95 NW6       29.97F
PITTSFIELD*    CLOUDY    72  70  93 W5        30.00F
$$

ILZ028>032-037-038-041>044-048-051>054-059>061-251300-
CENTRAL ILLINOIS

CITY           SKY/WX    TMP DP  RH WIND       PRES   REMARKS
PONTIAC        CLOUDY    74  73  98 W8        30.00S
BLOOMINGTON    PTSUNNY   72  70  93 W9        30.01F
DECATUR        CLOUDY    73  70  90 CALM      30.00F
PEORIA         CLOUDY    75  74  96 NW6       30.00F
6HR MIN TEMP:  74; 6HR MAX TEMP:  76; 6HR PCP: TRACE;

LACON*         CLOUDY    73  69  87 W3        30.00F
LINCOLN*       PTSUNNY   73  72  96 CALM      29.98F
SPRINGFIELD    PTSUNNY   73  71  93 N5        29.97F
6HR MIN TEMP:  73; 6HR MAX TEMP:  75; 6HR PCP:  0.66;

TAYLORVILLE    CLOUDY    72  71  98 NE7       29.96F
6HR MIN TEMP:  69; 6HR MAX TEMP:  73; 6HR PCP:  0.52;

$$

ILZ033-039-045-046-055>057-062-063-251300-
EAST-CENTRAL ILLINOIS

CITY           SKY/WX    TMP DP  RH WIND       PRES   REMARKS
CHAMPAIGN      CLOUDY    72  69  90 NW7       30.01F
MATTOON        CLOUDY    72  69  90 SW5       30.01S
PARIS*         CLOUDY    71  69  94 CALM      30.02S
$$

ILZ079-100>102-251300-
SOUTHWEST ILLINOIS

CITY           SKY/WX    TMP DP  RH WIND       PRES   REMARKS
ALTON          CLOUDY    72  70  94 S6        29.95F
BELLEVILLE     CLOUDY    74  74 100 SW5       29.96F
CAHOKIA*       CLOUDY    74  71  91 S7        29.97F
SPARTA*        CLOUDY    75  72  90 E5        30.01S
$$

ILZ064>066-069>071-074>076-080>082-084>086-088>090-092>094-251300-
SOUTH-CENTRAL ILLINOIS

CITY           SKY/WX    TMP DP  RH WIND       PRES   REMARKS
CARBONDALE     CLOUDY    78  76  93 CALM      29.99R FOG     HX  81
6HR MIN TEMP:  76; 6HR MAX TEMP:  78;

CAIRO*         CLOUDY    77  77  99 CALM      30.00R FOG
EFFINGHAM*     CLOUDY    74  74  99 CALM      30.01S
MARION         PTSUNNY   79  79 100 SE9       30.00R FOG     HX  83
MT. VERNON     CLOUDY    75  66  73 CALM      29.99S
CENTRALIA*     CLOUDY    75  74  95 CALM      29.99R
SALEM*         CLOUDY    76  72  89 CALM      29.99S
METROPOLIS*      N/A     77  77  98 CALM      30.00F FOG
$$

ILZ067-068-072-073-078-083-087-091-251300-
SOUTHEAST ILLINOIS

CITY           SKY/WX    TMP DP  RH WIND       PRES   REMARKS
LAWRENCEVILLE  PTSUNNY   73  71  93 CALM      29.99F
FLORA*         PTSUNNY   75  71  89 CALM      29.99F
FAIRFIELD*     CLOUDY    74  71  91 CALM      29.97F
HARRISBURG*    MOSUNNY   76  74  95 CALM      29.99F
ROBINSON*      CLOUDY    71  70  96 CALM      30.00F
CARMI*         CLOUDY    73  73  99 CALM      29.99F
$$

ABBREVIATIONS USED IN REMARKS
   TC - TEMPERATURE IN CELSIUS
  WCI - WIND CHILL INDEX
   HX - HEAT INDEX
  VSB - VISIBILITY
$$





USA.gov is the U.S. government's official web portal to all federal, state and local government web resources and services.